(473031) = 2011 SZ82 = 2015 HR69 = 2015 HW74

Discovered at Mount Lemmon on 2009-02-03 by Mt. Lemmon Survey.

Orbit

Orbit type: Main Belt

Note: WebGL enabled browser required.

epoch2023-09-13.0
epoch JD2460200.5
perihelion date2020-11-28.86275
perihelion JD2459182.36275
argument of perihelion (°)22.35023
ascending node (°)204.64451
inclination (°)2.39189
eccentricity0.1467974
perihelion distance (AU)2.6436348
Tisserand w.r.t. Jupiter3.2
ΔV w.r.t. Earth (km/sec)10.2
semimajor axis (AU)3.0984841
mean anomaly (°)183.98663
mean daily motion (°/day)0.18070910
aphelion distance (AU)3.553
period (years)5.45
P-vector [x]-0.68220362
P-vector [y]-0.67698299
P-vector [z]-0.27621053
Q-vector [x]0.73095511
Q-vector [y]-0.64046468
Q-vector [z]-0.23560482
absolute magnitude16.98
phase slope0.15
uncertainty0
referenceMPO 780207
observations used135
oppositions10
arc length (days)7153
first opposition used2004
last opposition used2023
residual rms (arc-secs)0.74
perturbers coarse indicatorM-v
perturbers precise indicator003Ek
first observation date used2004-03-16.0
last observation date used2023-10-16.0
computer nameMPCLINUX
JD of orbit computation2457614.473848
perihelion JD uncertainty (days)4.8302E-04
argument of perihelion uncertainty (°)1.2604E-04
ascending node uncertainty (°)5.1339E-05
inclination uncertainty (°)3.5434E-06
eccentricity uncertainty 2.6169E-07
perihelion distance uncertainty (AU)6.5477E-07
Minimum Orbit Intersection Distances (in AU)
for orbit epoch: 2460200.5, reference: E2023-U59
Mercury2.18804
Venus1.9199
Earth1.63332
Mars1.05762
Jupiter1.42529
Saturn5.5666
Uranus15.4807
Neptune26.2973

Observations

138 total observations over interval: 2004 03 16.42835 – 2023 10 16.488865
These data are available for download (format description).

